Simultaneous Nadir Overpasses (SNOs) Predictions

Prediction of SNOs near US between AQUA and NPP Satellite Orbit:

Table of predicted SNOs near US for the next 10.0 days since TLE Epoch: 1/31/2020
Index Date (AQUA) Time (AQUA) AQUA Lat,Lon Date (NPP) Time (NPP) NPP Lat,Lon Distance(km) Time Diff (sec)
1 02/02/2020 09:24:29 20.06,-114.21 02/02/2020 09:16:10 19.94,-114.69 50.97 499
2 02/05/2020 06:30:39 45.12, -65.47 02/05/2020 06:30:18 45.43, -67.48 161.57 21
3 02/05/2020 08:08:11 49.93, -88.31 02/05/2020 08:10:21 50.44, -90.76 183.51 130
4 02/05/2020 09:47:04 49.94,-113.03 02/05/2020 09:51:49 50.55,-116.08 227.88 285
5 02/07/2020 19:06:22 49.99, -92.55 02/07/2020 19:00:40 49.66, -94.35 134.22 342
6 02/07/2020 20:45:15 49.99,-117.27 02/07/2020 20:42:08 49.55,-119.67 179.51 187




NCC Satellite Simultaneous Nadir Overpasses (SNOs) Prediction Service
